OE5XFR Weather Reports


Display with metric or nautical units.
time (UTC)temp
F
wind
direction
speed
MPH
gust
MPH
rain 1hr
in
rain 24hr
in
rain mn
in
humidity
%
barometer
mb
20260505124515 76 96 4.0 15.0 0.00 0.00 0.00 20 1008.0
20260505123315 76 50 8.0 9.0 0.00 0.00 0.00 21 1008.0
20260505122115 76 59 4.0 10.0 0.00 0.00 0.00 20 1008.0
20260505120915 75 145 2.0 8.0 0.00 0.00 0.00 17 1008.0
20260505115715 75 190 5.0 9.0 0.00 0.00 0.00 16 1008.0
20260505114515 76 178 9.0 9.0 0.00 0.00 0.00 15 1008.0
20260505113315 77 254 5.0 6.0 0.00 0.00 0.00 16 1008.0
20260505112115 76 263 3.0 6.0 0.00 0.00 0.00 18 1008.0
20260505110915 75 297 4.0 7.0 0.00 0.00 0.00 20 1009.0
20260505102116 72 161 2.0 8.0 0.00 0.00 0.00 21 1009.0
20260505100916 72 143 3.0 10.0 0.00 0.00 0.00 22 1009.0
20260505095715 71 273 6.0 11.0 0.00 0.00 0.00 25 1009.0
20260505094516 71 218 7.0 10.0 0.00 0.00 0.00 25 1009.0
20260505093316 71 218 5.0 13.0 0.00 0.00 0.00 26 1009.0
20260505092117 71 224 7.0 10.0 0.00 0.00 0.00 25 1009.0
20260505090915 70 259 2.0 11.0 0.00 0.00 0.00 29 1010.0
20260505085715 69 247 7.0 12.0 0.00 0.00 0.00 32 1010.0
20260505084515 69 249 8.0 12.0 0.00 0.00 0.00 34 1010.0
20260505083316 68 269 10.0 12.0 0.00 0.00 0.00 37 1010.0
20260505082115 68 285 4.0 9.0 0.00 0.00 0.00 38 1010.0
20260505080915 67 277 6.0 8.0 0.00 0.00 0.00 40 1010.0
20260505075716 66 258 7.0 9.0 0.00 0.00 0.00 41 1010.0
20260505074516 66 258 7.0 9.0 0.00 0.00 0.00 41 1010.0
20260505073314 64 249 7.0 9.0 0.00 0.00 0.00 46 1010.0
20260505072115 63 229 6.0 10.0 0.00 0.00 0.00 46 1010.0
20260505070914 63 260 8.0 11.0 0.00 0.00 0.00 47 1010.0
20260505065715 61 270 4.0 6.0 0.00 0.00 0.00 53 1010.0
20260505064515 61 270 4.0 6.0 0.00 0.00 0.00 53 1010.0
20260505063315 60 226 2.0 5.0 0.00 0.00 0.00 56 1010.0
20260505062115 58 242 4.0 6.0 0.00 0.00 0.00 59 1010.0
20260505060914 56 222 4.0 5.0 0.00 0.00 0.00 64 1010.0
20260505055715 55 237 4.0 6.0 0.00 0.00 0.00 65 1010.0
20260505054515 54 271 4.0 5.0 0.00 0.00 0.00 66 1010.0
20260505053315 53 252 3.0 4.0 0.00 0.00 0.00 67 1010.0
20260505052115 53 225 4.0 4.0 0.00 0.00 0.00 67 1010.0
20260505050915 53 248 3.0 6.0 0.00 0.00 0.00 64 1010.0
20260505040915 56 237 3.0 4.0 0.00 0.00 0.00 57 1011.0
20260505035715 57 263 4.0 6.0 0.00 0.00 0.00 57 1011.0
20260505034516 57 263 4.0 6.0 0.00 0.00 0.00 57 1011.0
20260505033316 58 238 4.0 6.0 0.00 0.00 0.00 54 1011.0
20260505032115 58 238 4.0 6.0 0.00 0.00 0.00 54 1011.0
20260505030915 58 244 5.0 8.0 0.00 0.00 0.00 54 1011.0
20260505025715 58 207 2.0 6.0 0.00 0.00 0.00 55 1011.0
20260505024515 58 240 5.0 8.0 0.00 0.00 0.00 55 1011.0
20260505023315 58 255 7.0 8.0 0.00 0.00 0.00 54 1011.0
20260505022115 59 243 7.0 9.0 0.00 0.00 0.00 53 1011.0
20260505020915 59 251 7.0 7.0 0.00 0.00 0.00 51 1011.0
20260505015715 59 247 4.0 5.0 0.00 0.00 0.00 52 1011.0
20260505014515 59 246 3.0 8.0 0.00 0.00 0.00 53 1011.0
20260505013315 60 241 6.0 11.0 0.00 0.00 0.00 52 1011.0
20260505012115 59 258 3.0 8.0 0.00 0.00 0.00 52 1011.0
20260505010915 59 291 2.0 7.0 0.00 0.00 0.00 53 1011.0
20260505005714 59 264 7.0 10.0 0.00 0.00 0.00 54 1012.0
20260505004514 59 264 7.0 10.0 0.00 0.00 0.00 54 1012.0
20260505003315 57 254 7.0 9.0 0.00 0.00 0.00 57 1012.0
20260505002115 57 274 5.0 7.0 0.00 0.00 0.00 57 1012.0
20260505000915 56 292 4.0 5.0 0.00 0.00 0.00 60 1012.0
20260504235715 56 240 4.0 6.0 0.00 0.00 0.00 60 1012.0
20260504234515 57 269 5.0 9.0 0.00 0.00 0.00 60 1012.0
20260504233315 58 248 7.0 7.0 0.00 0.00 0.00 56 1012.0
20260504232116 58 295 3.0 4.0 0.00 0.00 0.00 57 1012.0
20260504230915 59 74 2.0 5.0 0.00 0.00 0.00 55 1012.0
20260504225714 60 210 2.0 3.0 0.00 0.00 0.00 51 1012.0
20260504224515 59 84 2.0 3.0 0.00 0.00 0.00 51 1012.0
20260504223315 59 275 3.0 6.0 0.00 0.00 0.00 57 1012.0
20260504222114 59 275 3.0 6.0 0.00 0.00 0.00 57 1012.0
20260504220914 60 239 3.0 4.0 0.00 0.00 0.00 54 1013.0
20260504215715 61 284 5.0 5.0 0.00 0.00 0.00 51 1012.0
20260504214514 61 284 5.0 5.0 0.00 0.00 0.00 51 1012.0
20260504213314 62 87 3.0 4.0 0.00 0.00 0.00 45 1012.0
20260504212114 62 328 2.0 4.0 0.00 0.00 0.00 44 1012.0
20260504210915 63 304 4.0 6.0 0.00 0.00 0.00 45 1012.0
20260504205714 65 49 4.0 4.0 0.00 0.00 0.00 40 1012.0
20260504204514 65 49 4.0 4.0 0.00 0.00 0.00 40 1012.0
20260504203314 65 270 2.0 7.0 0.00 0.00 0.00 40 1012.0
20260504202114 66 252 7.0 7.0 0.00 0.00 0.00 37 1012.0
20260504200914 68 95 2.0 5.0 0.00 0.00 0.00 31 1012.0
20260504195716 69 360 7.0 8.0 0.00 0.00 0.00 30 1012.0
20260504194515 69 10 4.0 13.0 0.00 0.00 0.00 30 1012.0
20260504193314 69 32 8.0 13.0 0.00 0.00 0.00 31 1012.0
20260504192114 69 35 10.0 17.0 0.00 0.00 0.00 31 1012.0
20260504190914 69 267 14.0 17.0 0.00 0.00 0.00 37 1012.0
20260504185714 71 250 8.0 10.0 0.00 0.00 0.00 34 1012.0
20260504184514 71 250 8.0 10.0 0.00 0.00 0.00 34 1012.0
20260504183316 73 285 3.0 4.0 0.00 0.00 0.00 26 1012.0
20260504182116 73 19 3.0 4.0 0.00 0.00 0.00 26 1012.0
20260504180916 73 16 5.0 5.0 0.00 0.00 0.00 26 1011.0
20260504175716 74 28 3.0 5.0 0.00 0.00 0.00 25 1012.0
20260504174516 74 28 3.0 5.0 0.00 0.00 0.00 25 1012.0
20260504173316 74 71 4.0 7.0 0.00 0.00 0.00 27 1012.0
20260504172116 74 71 4.0 7.0 0.00 0.00 0.00 27 1012.0
20260504170916 75 64 5.0 12.0 0.00 0.00 0.00 25 1012.0
20260504150916 75 75 4.0 16.0 0.00 0.00 0.00 25 1012.0
20260504140915 76 83 9.0 16.0 0.00 0.00 0.00 24 1013.0